STARLINK-35010

Satellite information

Favourite Embed

Satellite Type and Status

PAYLOADIN ORBIT

Key statistics

Satellite STARLINK-35010 at a glance.

Uptime

27

Days in orbit

Revolutions

≈ 15.4

Per day

Orbit

SSO

Sun Synchronous Orbit

Inclination

97.6

Latest

Satellite identification and parameters

Extended collection of information and parameters for STARLINK-35010.

Object identification

Identified? True

Debris? False

Object name: STARLINK-35010

International designator: 2025-184J

Object number (NORAD): 65281

Object ID (CCSDS): 65281

Country: UNITED STATES OF AMERICA (US)

Current information (Y/N): Y

RCS size: LARGE

Orbital parameters

Period: 93.548 minutes

Inclination: 97.6038 deg

SMA: 6826.27 km

Apoapsis: 449.025 km

Periapsis: 447.245 km

RAAN: 311.4623 deg

Eccentricy: 0.00013039

Argument of periapsis: 89.3965 deg

Mean anomaly: 346.5114 deg

Mean motion: 15.39315145 rev/day

Mean motion (dot): 0.00048775 rev/day2

B* drag term: 0.0012460017 1/REarth

Two-line elements (TLE)

Creation date: Sept. 18, 2025, 3:57 a.m.

Reference frame: TEME

Reference center: EARTH

Epoch: Sept. 17, 2025, 10 p.m. UTC

TLE line 0: 0 STARLINK-35010

TLE line 1: 1 65281U 25184J 25260.91668981 .00048775 00000-0 12460-2 0 9991

TLE line 2: 2 65281 97.6038 311.4623 0001304 89.3965 346.5114 15.39315145 5337

Live tracking on map

Real-time ground track for satellite STARLINK-35010.

In-orbit conjunctions

There are no conjunctions computed for STARLINK-35010, at the moment. Check back to stay up to date, as we update our databases every day.

Go to all conjunctions

Associated space launch

A batch of 24 satellites for the Starlink mega-constellation - SpaceX's project for space-based Internet communication system.

STARLINK-35010 was lifted into orbit during the mission ‘Falcon 9 Block 5 | Starlink Group 17-6’, on board a Falcon 9 space rocket.

The launch took place on Aug. 22, 2025, 5:04 p.m. from Space Launch Complex 4E.

For more information about the launch, click the button.

Launch to space Falcon 9 Block 5 | Starlink Group 17-6
Falcon 9 Block 5 | Starlink Group 17-6

Agency: SpaceX

Status: Launch Successful

Launch date: Aug. 22, 2025, 5:04 p.m. UTC

Rocket: Falcon 9

Launch pad: Space Launch Complex 4E

Location: Vandenberg SFB, CA, USA

...

Latest news about this satellite

News about space launch
Live coverage: SpaceX to launch 24 Starlink satellites on Falcon 9 rocket from Vandenberg SFB

The mission will include the 1,800th Starlink satellite launched in 2025. SpaceX is targeting liftoff from pad 4E at Vandenberg Space Force Base at 10:02 a.m. PDT (1:02 p.m. EDT / 1702 UTC).

News about space launch
Launch Roundup: SpaceX, Chinese, and Russian missions make up busy week

A Chinese rocket, a pair of Russian missions, a trio of Falcon 9 launches, and… The post Launch Roundup: SpaceX, Chinese, and Russian missions make up busy week appeared first on NASASpaceFlight.com.

News about space launch
Launch Roundup: Falcon 9, Starship, and Russia flying this week

A pair of Russian space missions, a trio of Falcon 9 launches, and the long-awaited… The post Launch Roundup: Falcon 9, Starship, and Russia flying this week appeared first on NASASpaceFlight.com.


Newsletter sign-up

Weekly statistics, charts and insights to help you stay on top of the space industry.